Weather History for PAPG - November, 2011

Change the Weather History Date:

Wednesday, November 2, 2011

  Actual Average Record
Temperature  
Mean Temperature 38 °F -  
Max Temperature 41 °F 40 °F 52 °F (1986)
Min Temperature 35 °F 32 °F 21 °F (1984)
Degree Days  
Heating Degree Days 27    
Moisture  
Dew Point 33 °F    
Average Humidity 84    
Maximum Humidity 100    
Minimum Humidity 65    
Precipitation  
Precipitation 0.00 in - - ()
Sea Level Pressure  
Sea Level Pressure 29.52 in    
Wind  
Wind Speed 5 mph (West)    
Max Wind Speed 16 mph    
Max Gust Speed 24 mph    
Visibility 8 miles    
Events      
Averages and records for this station are not official NWS values.
T = Trace of Precipitation, MM = Missing Value Source: NWS Daily Summary

Daily Weather History Graph

Daily Weather History Graph

Search for Another Location

Airport or City:

Trip Planner

Search our weather history database for the weather conditions in past years. The results will help you decide how hot, cold, wet, or windy it might be!

Date:

Astronomy

Nov. 02, 2011 Rise Set
Actual Time 8:03 AM AKDT 5:06 PM AKDT
Civil Twilight 7:22 AM AKDT 5:47 PM AKDT
Nautical Twilight 6:37 AM AKDT 6:32 PM AKDT
Astronomical Twilight 5:53 AM AKDT 7:16 PM AKDT
Moon 2:23 PM AKDT (11/2) No Moon Set
Length of Visible Light 10h 24m
Length of Day
9h 02m
First Quarter, 51% of the Moon is Illuminated
Nov 2
First Quarter
Nov 10
Full
Nov 18
Last Quarter
Nov 24
New
Dec 2
First Quarter

Hourly Weather History & Observations

Time (AKDT) Temp. Windchill Dew Point Humidity Pressure Visibility Wind Dir Wind Speed Gust Speed Precip Events Conditions
12:16 AM 37.4 °F 34.9 °F 35.6 °F 93% 29.60 in 10.0 mi South 3.5 mph - N/A   Overcast
12:36 AM 37.4 °F 33.8 °F 35.6 °F 93% 29.60 in 10.0 mi SW 4.6 mph - N/A   Overcast
12:56 AM 37.4 °F - 35.6 °F 93% 29.59 in 10.0 mi Calm Calm - N/A   Overcast
1:56 AM 37.4 °F - 35.6 °F 93% 29.58 in 10.0 mi Calm Calm - N/A   Overcast
2:56 AM 35.6 °F 32.8 °F 35.6 °F 100% 29.56 in 10.0 mi SSW 3.5 mph - N/A   Scattered Clouds
3:16 AM 35.6 °F 32.8 °F 35.6 °F 100% 29.55 in 10.0 mi WSW 3.5 mph - N/A   Mostly Cloudy
3:36 AM 35.6 °F 31.7 °F 33.8 °F 93% 29.55 in 1.0 mi WSW 4.6 mph - N/A   Overcast
3:56 AM 35.6 °F - 35.6 °F 100% 29.55 in 0.2 mi Calm Calm - N/A   Overcast
4:16 AM 35.6 °F 32.8 °F 35.6 °F 100% 29.54 in 0.2 mi WSW 3.5 mph - N/A   Overcast
4:36 AM 35.6 °F 31.7 °F 33.8 °F 93% 29.53 in 0.2 mi WSW 4.6 mph - N/A   Overcast
4:56 AM 35.6 °F 32.8 °F 33.8 °F 93% 29.53 in 3.0 mi WSW 3.5 mph - N/A   Overcast
5:16 AM 35.6 °F - 35.6 °F 100% 29.51 in 10.0 mi Calm Calm - N/A   Overcast
5:36 AM 35.6 °F 30.7 °F 33.8 °F 93% 29.50 in 2.5 mi West 5.8 mph - N/A   Overcast
5:56 AM 35.6 °F 31.7 °F 33.8 °F 93% 29.49 in 1.5 mi SW 4.6 mph - N/A   Mostly Cloudy
6:16 AM 35.6 °F 30.7 °F 33.8 °F 93% 29.49 in 1.5 mi SW 5.8 mph - N/A   Mostly Cloudy
6:36 AM 35.6 °F 31.7 °F 33.8 °F 93% 29.48 in 1.5 mi SW 4.6 mph - N/A   Mostly Cloudy
6:56 AM 35.6 °F 32.8 °F 33.8 °F 93% 29.46 in 1.8 mi SW 3.5 mph - N/A   Overcast
7:16 AM 35.6 °F - 33.8 °F 93% 29.46 in 1.8 mi Calm Calm - N/A   Overcast
7:36 AM 35.6 °F - 33.8 °F 93% 29.46 in 10.0 mi Calm Calm - N/A   Overcast
7:56 AM 35.6 °F - 33.8 °F 93% 29.46 in 10.0 mi Calm Calm - N/A   Overcast
8:16 AM 35.6 °F 32.8 °F 33.8 °F 93% 29.46 in 10.0 mi WSW 3.5 mph - N/A   Mostly Cloudy
8:36 AM 35.6 °F 29.9 °F 33.8 °F 93% 29.45 in 10.0 mi SSW 6.9 mph - N/A   Mostly Cloudy
8:56 AM 35.6 °F 30.7 °F 33.8 °F 93% 29.45 in 10.0 mi SW 5.8 mph - N/A   Scattered Clouds
9:16 AM 35.6 °F 32.8 °F 33.8 °F 93% 29.45 in 10.0 mi SW 3.5 mph - N/A   Scattered Clouds
9:36 AM 37.4 °F 33.8 °F 35.6 °F 93% 29.44 in 10.0 mi WSW 4.6 mph - N/A   Scattered Clouds
9:56 AM 37.4 °F - 35.6 °F 93% 29.44 in 10.0 mi Calm Calm - N/A   Scattered Clouds
10:16 AM 37.4 °F 32.1 °F 35.6 °F 93% 29.44 in 10.0 mi West 6.9 mph - N/A   Scattered Clouds
10:36 AM 37.4 °F 32.1 °F 35.6 °F 93% 29.44 in 10.0 mi WNW 6.9 mph - N/A   Scattered Clouds
10:56 AM 39.2 °F 35.0 °F 33.8 °F 81% 29.44 in 10.0 mi WNW 5.8 mph - N/A   Scattered Clouds
11:16 AM 39.2 °F 34.2 °F 35.6 °F 87% 29.45 in 10.0 mi WNW 6.9 mph - N/A   Scattered Clouds
11:36 AM 39.2 °F 33.0 °F 33.8 °F 81% 29.45 in 10.0 mi WNW 9.2 mph - N/A   Scattered Clouds
11:56 AM 39.2 °F 33.0 °F 33.8 °F 81% 29.46 in 10.0 mi West 9.2 mph 18.4 mph N/A   Scattered Clouds
12:16 PM 39.2 °F 32.0 °F 33.8 °F 81% 29.46 in 10.0 mi WNW 11.5 mph - N/A   Scattered Clouds
12:36 PM 39.2 °F 32.5 °F 33.8 °F 81% 29.46 in 10.0 mi WNW 10.4 mph - N/A   Scattered Clouds
12:56 PM 39.2 °F 34.2 °F 33.8 °F 81% 29.46 in 10.0 mi WNW 6.9 mph 19.6 mph N/A   Scattered Clouds
1:16 PM 39.2 °F 34.2 °F 33.8 °F 81% 29.47 in 10.0 mi WNW 6.9 mph - N/A   Scattered Clouds
1:36 PM 39.2 °F 34.2 °F 33.8 °F 81% 29.47 in 10.0 mi WNW 6.9 mph - N/A   Scattered Clouds
1:56 PM 41.0 °F 36.4 °F 33.8 °F 76% 29.48 in 10.0 mi NW 6.9 mph - N/A   Scattered Clouds
2:16 PM 41.0 °F 35.8 °F 33.8 °F 76% 29.48 in 10.0 mi NW 8.1 mph - N/A   Scattered Clouds
2:36 PM 41.0 °F 36.4 °F 33.8 °F 76% 29.49 in 10.0 mi WNW 6.9 mph - N/A   Scattered Clouds
2:56 PM 41.0 °F 37.1 °F 32.0 °F 70% 29.50 in 10.0 mi NW 5.8 mph - N/A   Scattered Clouds
3:16 PM 41.0 °F 35.2 °F 32.0 °F 70% 29.50 in 10.0 mi WNW 9.2 mph - N/A   Scattered Clouds
3:36 PM 41.0 °F 37.1 °F 32.0 °F 70% 29.51 in 10.0 mi WNW 5.8 mph - N/A   Scattered Clouds
3:56 PM 41.0 °F 37.1 °F 33.8 °F 76% 29.51 in 10.0 mi NW 5.8 mph - N/A   Scattered Clouds
4:16 PM 41.0 °F - 33.8 °F 76% 29.52 in 10.0 mi Calm Calm - N/A   Scattered Clouds
4:36 PM 39.2 °F - 35.6 °F 87% 29.53 in 10.0 mi Calm Calm - N/A   Scattered Clouds
4:56 PM 37.4 °F 34.9 °F 33.8 °F 87% 29.54 in 10.0 mi SSW 3.5 mph - N/A   Scattered Clouds
5:16 PM 37.4 °F - 32.0 °F 81% 29.54 in 10.0 mi Calm Calm - N/A   Scattered Clouds
5:36 PM 39.2 °F 35.0 °F 30.2 °F 70% 29.55 in 10.0 mi West 5.8 mph - N/A   Scattered Clouds
5:56 PM 39.2 °F 33.6 °F 30.2 °F 70% 29.56 in 10.0 mi West 8.1 mph - N/A   Partly Cloudy
6:16 PM 39.2 °F 32.0 °F 30.2 °F 70% 29.57 in 10.0 mi WNW 11.5 mph 17.3 mph N/A   Partly Cloudy
6:36 PM 37.4 °F 31.4 °F 30.2 °F 75% 29.58 in 10.0 mi West 8.1 mph - N/A   Partly Cloudy
6:56 PM 37.4 °F 30.3 °F 28.4 °F 70% 29.59 in 10.0 mi West 10.4 mph - N/A   Partly Cloudy
7:16 PM 37.4 °F 29.8 °F 28.4 °F 70% 29.60 in 10.0 mi West 11.5 mph 20.7 mph N/A   Partly Cloudy
7:36 PM 37.4 °F 28.9 °F 26.6 °F 65% 29.60 in 10.0 mi West 13.8 mph 19.6 mph N/A   Partly Cloudy
7:56 PM 37.4 °F 28.2 °F 26.6 °F 65% 29.61 in 10.0 mi WNW 16.1 mph 21.9 mph N/A   Clear
8:16 PM 37.4 °F 28.9 °F 26.6 °F 65% 29.62 in 10.0 mi West 13.8 mph 21.9 mph N/A   Clear
8:36 PM 35.6 °F 27.5 °F 26.6 °F 70% 29.63 in 10.0 mi WNW 11.5 mph 23.0 mph N/A   Clear
8:56 PM 35.6 °F 27.1 °F 26.6 °F 70% 29.64 in 10.0 mi WNW 12.7 mph 24.2 mph N/A   Clear
9:16 PM 35.6 °F 28.6 °F 26.6 °F 70% 29.66 in 10.0 mi West 9.2 mph - N/A   Clear
9:36 PM 35.6 °F 29.2 °F 24.8 °F 65% 29.67 in 10.0 mi West 8.1 mph 21.9 mph N/A   Clear
9:56 PM 35.6 °F 27.5 °F 24.8 °F 65% 29.68 in 10.0 mi WSW 11.5 mph 16.1 mph N/A   Clear
10:16 PM 35.6 °F 29.2 °F 24.8 °F 65% 29.69 in 10.0 mi West 8.1 mph 18.4 mph N/A   Clear
10:36 PM 35.6 °F 27.5 °F 23.0 °F 60% 29.70 in 10.0 mi WNW 11.5 mph 23.0 mph N/A   Clear
10:56 PM 35.6 °F 25.9 °F 23.0 °F 60% 29.71 in 10.0 mi WNW 16.1 mph 31.1 mph N/A   Clear
11:16 PM 33.8 °F 24.3 °F 23.0 °F 65% 29.73 in 10.0 mi WNW 13.8 mph 24.2 mph N/A   Clear
11:36 PM 33.8 °F 23.9 °F 21.2 °F 60% 29.73 in 10.0 mi West 15.0 mph 19.6 mph N/A   Clear
11:56 PM 33.8 °F 24.3 °F 21.2 °F 60% 29.75 in 10.0 mi WNW 13.8 mph 19.6 mph N/A   Clear